This is the latest recevied weather packets stored in our database for station/object KC8SWY-15. If no packets are shown the sender has not sent any weather packets the latest 10 day(s).
| Time | Temp. | Humidity | Pressure | Rain* | Wind** | Luminosity | Snow |
|---|---|---|---|---|---|---|---|
| 1778097264 | 12.22° C | 39% | 1014.3 hPa | 0 mm | - | - | - |
| 1778096964 | 11.67° C | 39% | 1014.4 hPa | 0 mm | - | - | - |
| 1778096664 | 11.67° C | 37% | 1014.4 hPa | 0 mm | - | - | - |
| 1778096364 | 12.22° C | 37% | 1014.4 hPa | 0 mm | - | - | - |
| 1778096064 | 11.67° C | 37% | 1014.4 hPa | 0 mm | - | - | - |
| 1778095764 | 11.67° C | 37% | 1014.4 hPa | 0 mm | - | - | - |
| 1778095464 | 11.67° C | 35% | 1014.4 hPa | 0 mm | - | - | - |
| 1778095164 | 11.67° C | 39% | 1014.2 hPa | 0 mm | - | - | - |
| 1778094864 | 11.67° C | 41% | 1014.2 hPa | 0 mm | - | - | - |
| 1778094564 | 11.67° C | 39% | 1014.2 hPa | 0 mm | - | - | - |
| 1778094264 | 11.11° C | 39% | 1014.2 hPa | 0 mm | - | - | - |
| 1778093964 | 11.11° C | 39% | 1014.2 hPa | 0 mm | - | - | - |
| 1778093664 | 11.11° C | 38% | 1014.4 hPa | 0 mm | - | - | - |
| 1778093364 | 11.67° C | 38% | 1014.4 hPa | 0 mm | - | - | - |
| 1778093064 | 11.67° C | 41% | 1014.3 hPa | 0 mm | - | - | - |
| 1778092764 | 11.67° C | 38% | 1014.4 hPa | 0 mm | - | - | - |
| 1778092464 | 12.22° C | 38% | 1014.3 hPa | 0 mm | - | - | - |
| 1778092164 | 12.22° C | 38% | 1014.3 hPa | 0 mm | - | - | - |
| 1778091864 | 12.22° C | 38% | 1014.2 hPa | 0 mm | - | - | - |
| 1778091564 | 12.22° C | 39% | 1014.2 hPa | 0 mm | - | - | - |
| 1778091264 | 11.67° C | 37% | 1014.2 hPa | 0 mm | - | - | - |
| 1778090964 | 11.67° C | 40% | 1014.4 hPa | 0 mm | - | - | - |
| 1778090664 | 11.67° C | 38% | 1014.3 hPa | 0 mm | - | - | - |
| 1778090364 | 11.67° C | 40% | 1014.2 hPa | 0 mm | - | - | - |
| 1778090064 | 11.67° C | 38% | 1014.2 hPa | 0 mm | - | - | - |
* Rain latest hour (hover to see other rain measurements)
** Current wind speed in m/s (hover to see current wind gust speed)